Theta_e
309 311 321 325 330 334 335 337 335 331 329 327 327 325 324 321 319 315 310 312 312 309 310 309 309 309 309 310 310 311 311 311
316 313 323 327 330 331 335 331 331 328 327 324 320 317 317 317 315 309 309 311 309 308 308 307 307 307 308 309 309 308 309 310
319 319 325 327 329 332 329 328 327 325 322 318 311 309 310 308 305 304 304 305 305 304 304 304 304 305 304 306 306 307 307 307
320 323 326 328 331 326 326 324 323 320 312 308 308 306 305 303 302 300 301 302 302 301 301 301 300 299 297 299 305 306 306 305
321 323 327 328 324 324 322 320 317 312 309 307 306 304 303 302 300 298 299 300 300 299 298 299 299 298 295 296 300 303 302 302
323 324 323 322 322 319 317 316 312 310 307 306 306 303 302 301 299 298 298 297 297 296 297 298 298 295 293 294 297 301 300 300
320 320 318 317 316 315 313 311 309 307 305 305 304 305 303 300 297 296 296 294 294 295 296 297 297 296 292 293 298 299 298 297
313 314 313 311 311 311 309 308 307 306 305 305 305 303 301 297 296 295 295 295 295 295 295 297 296 296 292 292 297 297 296 295
311 311 309 308 309 309 307 306 305 305 305 304 303 301 298 296 295 294 294 294 294 295 294 296 297 297 295 292 293 296 295 293
306 304 304 306 306 306 304 303 305 307 305 302 301 300 297 295 294 294 294 294 294 294 294 294 296 296 294 292 291 292 294 294
303 301 300 302 303 303 301 301 304 304 303 301 300 298 296 295 293 293 293 294 293 293 292 292 293 294 294 292 291 291 292 292
299 298 297 295 300 300 300 301 301 300 299 299 299 297 295 294 293 293 293 293 292 292 292 292 293 293 294 295 295 294 292 292
297 293 293 294 296 297 298 300 300 298 298 297 296 295 293 292 292 292 292 293 293 292 293 293 293 292 291 290 291 292 292 289
294 295 293 293 293 294 295 297 298 298 297 297 295 292 292 292 291 290 289 289 289 288 289 292 292 290 289 289 288 287 287 287
293 292 291 292 292 293 295 297 297 295 294 294 292 292 292 292 292 291 290 290 290 289 289 289 289 289 288 288 287 286 286 288
292 291 292 291 291 291 293 294 294 294 293 291 292 292 292 292 292 292 292 291 290 290 288 289 288 288 287 287 288 289 289 289
294 294 293 292 291 290 293 293 293 292 292 291 292 292 292 292 293 293 292 292 291 291 290 289 288 287 286 287 288 290 289 288
296 295 294 294 293 294 294 293 293 293 292 290 291 292 292 293 293 293 292 292 291 291 290 290 291 290 289 289 290 290 289 288
297 296 296 296 295 296 295 295 294 293 293 293 290 293 293 293 293 292 292 292 291 290 289 287 282 290 288 288 289 289 289 288
296 296 296 297 297 297 297 297 296 295 294 293 293 292 293 292 293 293 292 292 291 290 289 287 283 290 289 288 289 289 289 289
Wind_Speed
11 7 9 12 14 15 17 17 18 17 18 18 16 16 16 15 16 16 15 16 17 13 12 12 11 11 9 8 9 9 8 9
8 11 12 14 15 17 18 17 19 20 19 18 16 16 17 17 17 16 15 17 15 14 13 12 11 9 9 9 9 8 9 8
8 13 14 16 17 17 17 18 19 20 19 18 18 18 18 17 17 16 15 15 15 14 13 11 10 8 6 9 9 9 9 9
9 15 18 20 20 17 18 18 19 21 20 20 19 20 19 17 17 16 15 16 15 12 12 12 11 8 10 11 9 9 9 9
13 17 19 19 18 18 20 19 20 21 22 20 21 21 20 18 17 16 15 15 14 13 11 12 12 11 11 11 9 10 10 10
17 12 16 19 19 19 20 19 21 22 22 20 20 21 20 17 18 17 16 14 13 11 11 12 13 10 13 11 10 11 11 12
15 15 18 21 20 20 21 20 21 22 22 20 20 20 22 20 19 17 15 14 13 12 11 13 13 12 13 10 9 11 12 11
18 20 20 21 20 21 23 22 23 21 21 21 20 21 21 20 18 17 15 14 13 12 14 14 15 13 13 10 8 8 9 8
18 19 20 21 21 24 23 22 22 21 22 20 20 20 21 19 18 15 14 14 14 14 15 14 14 12 13 13 10 8 8 8
20 22 20 18 20 24 23 23 21 22 21 21 20 19 15 14 17 15 15 15 15 14 14 12 10 11 12 12 14 13 9 8
19 23 24 18 19 22 24 20 21 22 22 22 20 19 17 15 16 15 12 12 11 11 10 10 9 8 10 13 13 12 12 9
20 25 24 22 20 21 21 21 21 22 22 20 18 18 16 14 12 11 11 10 10 10 10 9 8 7 7 7 7 6 7 6
19 23 21 21 20 21 18 20 20 20 19 18 18 14 15 15 13 11 10 10 9 9 8 8 8 9 9 11 11 7 7 6
20 22 22 20 21 20 18 18 19 19 19 15 14 13 13 14 14 13 18 14 13 12 11 10 10 12 12 14 12 11 8 8
20 21 18 18 19 20 18 18 18 19 18 17 14 14 13 14 13 12 13 13 18 15 14 15 15 12 12 12 11 10 10 6
19 18 18 20 20 20 17 18 19 19 18 19 14 13 12 12 12 12 10 11 10 10 13 12 14 13 12 7 1 4 8 10
17 17 17 19 19 19 18 19 19 18 15 13 12 11 11 12 11 11 10 10 10 10 9 10 11 12 9 5 5 8 8 8
16 16 18 18 19 17 18 18 18 15 14 14 12 12 11 10 10 10 10 9 9 8 7 6 5 3 5 6 7 7 7 7
16 17 16 16 16 16 16 16 16 12 12 11 12 11 10 8 9 9 8 8 8 7 7 7 7 5 6 7 6 6 6 6
16 15 14 13 13 13 13 14 12 11 10 10 10 10 9 9 8 8 7 7 8 7 7 6 5 4 5 6 6 6 5 5
Wind_Direction
227 225 187 179 176 166 165 145 136 130 126 121 124 121 121 119 123 116 105 108 105 104 104 97 88 81 87 85 87 84 77 75
219 204 184 172 167 167 158 132 133 126 123 123 120 117 115 115 120 108 105 106 109 102 91 87 86 90 90 90 87 84 80 75
205 183 171 159 161 156 133 133 131 125 121 117 113 110 109 110 103 97 96 102 94 94 101 95 90 85 80 95 90 86 84 80
191 171 165 157 154 135 132 128 124 119 114 116 116 111 108 105 102 100 98 100 100 98 98 99 95 83 82 80 87 86 75 66
168 175 163 145 135 133 129 124 121 116 118 118 117 113 110 107 103 100 104 101 102 100 101 100 91 82 71 79 75 80 76 64
160 151 131 126 125 118 119 118 118 116 115 119 118 114 111 112 110 108 107 106 104 104 101 96 89 72 68 71 79 84 79 68
123 129 120 118 116 118 115 114 112 114 116 117 114 117 120 116 113 112 109 109 104 97 91 89 84 72 57 55 92 86 80 72
120 119 115 108 113 114 111 113 111 111 113 114 112 118 117 112 111 108 107 102 100 96 88 84 79 76 55 49 63 81 74 72
119 113 111 111 118 114 110 109 108 112 109 111 113 112 110 110 110 107 109 105 100 94 90 82 79 75 65 56 33 70 65 63
111 103 97 100 110 106 106 104 109 109 109 106 106 109 106 109 108 109 106 103 100 95 92 90 81 77 65 66 64 54 54 67
107 104 95 93 98 104 108 105 107 109 106 107 108 108 108 108 106 105 104 100 97 99 96 93 91 93 89 77 65 66 51 64
105 99 96 95 100 100 99 108 111 107 104 106 108 108 106 100 97 98 99 98 100 98 97 99 102 93 81 67 73 83 83 65
93 93 95 96 97 96 102 109 109 104 105 108 110 106 102 98 85 84 89 69 77 101 100 101 101 87 65 52 45 54 56 35
89 90 92 96 93 95 99 102 106 108 109 110 110 109 106 103 99 91 55 69 72 72 54 85 84 92 86 73 69 64 44 351
78 85 87 91 94 96 100 105 107 106 109 115 111 111 112 110 110 108 106 78 69 64 71 69 73 86 84 87 87 76 23 37
89 91 90 96 98 97 104 105 105 106 106 105 111 114 113 116 118 117 117 115 110 98 58 71 70 75 68 55 253 156 66 55
92 95 94 95 96 98 102 103 105 105 106 105 106 111 113 115 118 115 115 109 105 105 105 91 83 85 89 72 22 55 54 49
99 94 95 96 96 100 103 104 103 103 100 99 109 118 121 121 120 115 113 109 104 97 91 92 115 121 72 61 55 53 54 45
91 95 98 99 105 110 111 109 108 112 116 114 109 114 116 120 117 115 113 111 104 95 85 62 356 76 68 59 54 48 44 42
91 86 92 102 108 111 110 114 118 120 121 121 119 120 117 116 112 110 113 111 112 110 107 100 283 77 70 64 57 49 45 34